Overview Statistics Trail Chart Weather Telemetry Raw packets
 

This is the latest recevied weather packets stored in our database for station/object DC0VZ-6. If no packets are shown the sender has not sent any weather packets the latest 10 day(s).

<< 1 2 3 4 >>
Time Temp. Humidity Pressure Rain* Wind** Luminosity Snow
1788573969 18.89° C 41% 987.1 hPa 0 mm - - -
1788573369 18.89° C 41% 987.1 hPa 0 mm - - -
1788572774 18.89° C 41% 987.1 hPa 0 mm - - -
1788572174 18.89° C 40% 987.1 hPa 0 mm - - -
1788571574 19.44° C 40% 987.1 hPa 0 mm - - -
1788570974 19.44° C 40% 987.1 hPa 0 mm - - -
1788570374 19.44° C 39% 987.1 hPa 0 mm - - -
1788569774 19.44° C 39% 986.7 hPa 0 mm - - -
1788569174 19.44° C 39% 986.7 hPa 0 mm - - -
1788568574 19.44° C 38% 986.7 hPa 0 mm - - -
1788567974 19.44° C 38% 986.7 hPa 0 mm - - -
1788567374 19.44° C 37% 986.6 hPa 0 mm - - -
1788566774 18.89° C 37% 986.6 hPa 0 mm - - -
1788566173 18.89° C 37% 986.4 hPa 0 mm - - -
1788565574 18.89° C 36% 986.4 hPa 0 mm - - -
1788564973 18.89° C 36% 986.1 hPa 0 mm - - -
1788564373 19.44° C 35% 986.1 hPa 0 mm - - -
1788563773 21.67° C 34% 986.2 hPa 0 mm - - -
1788563173 21.67° C 34% 986.2 hPa 0 mm - - -
1788562573 21.67° C 33% 985.9 hPa 0 mm - - -
1788561973 21.67° C 33% 985.9 hPa 0 mm - - -
1788561373 21.67° C 32% 985.6 hPa 0 mm - - -
1788560773 22.22° C 31% 985.6 hPa 0 mm - - -
1788560173 22.22° C 31% 985.6 hPa 0 mm - - -
1788559573 22.78° C 30% 985.6 hPa 0 mm - - -

* Rain latest hour (hover to see other rain measurements)
** Current wind speed in m/s (hover to see current wind gust speed)